StationID,Date,MaxTemp,MinTemp,Precipitation,Snowfall,SnowDepth
"CA001019014","1971-11-01",51.98,35.96,8.00,0.00,
"CA001019014","1971-11-02",44.06,35.96,584.00,0.00,
"CA001019014","1971-11-03",46.04,39.92,114.00,0.00,
"CA001019014","1971-11-04",48.02,32.00,0.00,0.00,
"CA001019014","1971-11-05",48.02,35.96,0.00,0.00,
"CA001019014","1971-11-06",46.04,35.96,127.00,0.00,
"CA001019014","1971-11-07",46.04,32.00,287.00,0.00,
"CA001019014","1971-11-08",48.02,35.96,445.00,0.00,
"CA001019014","1971-11-09",50.00,42.08,457.00,0.00,
"CA001019014","1971-11-10",50.00,42.08,213.00,0.00,
"CA001019014","1971-11-11",50.00,42.08,0.00,0.00,
"CA001019014","1971-11-12",50.00,42.08,0.00,0.00,
"CA001019014","1971-11-13",46.04,39.92,89.00,0.00,
"CA001019014","1971-11-14",53.96,37.94,0.00,0.00,
"CA001019014","1971-11-15",48.02,39.92,0.00,0.00,
"CA001019014","1971-11-16",48.92,33.98,0.00,0.00,
"CA001019014","1971-11-17",44.96,35.96,0.00,0.00,
"CA001019014","1971-11-18",46.04,42.08,18.00,0.00,
"CA001019014","1971-11-19",53.06,42.08,0.00,0.00,
"CA001019014","1971-11-20",51.08,46.04,0.00,0.00,
"CA001019014","1971-11-21",50.00,44.06,127.00,0.00,
"CA001019014","1971-11-22",48.02,33.08,86.00,0.00,
"CA001019014","1971-11-23",46.04,33.98,328.00,0.00,
"CA001019014","1971-11-24",46.04,35.96,201.00,0.00,
"CA001019014","1971-11-25",46.04,35.06,180.00,0.00,
"CA001019014","1971-11-26",50.00,37.94,124.00,0.00,
"CA001019014","1971-11-27",50.00,39.92,86.00,0.00,
"CA001019014","1971-11-28",42.98,37.94,10.00,0.00,
"CA001019014","1971-11-29",51.98,33.98,0.00,0.00,
"CA001019014","1971-11-30",42.98,32.00,0.00,0.00,
"CA001019014","1971-12-01",48.02,35.96,61.00,0.00,
"CA001019014","1971-12-02",44.06,33.98,69.00,0.00,
"CA001019014","1971-12-03",39.92,32.00,30.00,0.00,
"CA001019014","1971-12-04",35.96,32.00,208.00,0.00,
"CA001019014","1971-12-05",42.08,32.00,18.00,0.00,
"CA001019014","1971-12-06",42.98,26.06,18.00,0.00,
"CA001019014","1971-12-07",35.96,26.06,178.00,178.00,
"CA001019014","1971-12-08",37.94,28.04,152.00,152.00,
"CA001019014","1971-12-09",37.94,28.04,0.00,0.00,
"CA001019014","1971-12-10",46.94,28.04,0.00,0.00,
"CA001019014","1971-12-11",46.94,24.08,38.00,13.00,
"CA001019014","1971-12-12",44.06,26.06,206.00,13.00,
"CA001019014","1971-12-13",33.98,28.94,330.00,0.00,
"CA001019014","1971-12-14",46.04,30.02,13.00,13.00,
"CA001019014","1971-12-15",37.04,24.08,0.00,0.00,
"CA001019014","1971-12-16",39.92,30.02,559.00,0.00,
"CA001019014","1971-12-17",39.92,33.98,61.00,0.00,
"CA001019014","1971-12-18",39.92,26.06,25.00,0.00,
"CA001019014","1971-12-19",44.06,26.96,13.00,13.00,
"CA001019014","1971-12-20",44.06,30.92,89.00,89.00,
"CA001019014","1971-12-21",35.96,30.02,165.00,165.00,
"CA001019014","1971-12-22",37.94,30.02,264.00,0.00,
"CA001019014","1971-12-23",37.94,30.02,66.00,0.00,
"CA001019014","1971-12-24",37.94,30.02,0.00,0.00,
"CA001019014","1971-12-25",39.02,24.98,91.00,51.00,
"CA001019014","1971-12-26",35.96,19.94,0.00,0.00,
"CA001019014","1971-12-27",30.02,17.96,0.00,0.00,
"CA001019014","1971-12-28",32.00,24.08,0.00,0.00,
"CA001019014","1971-12-29",35.96,26.96,0.00,0.00,
"CA001019014","1971-12-30",37.94,26.06,0.00,0.00,
"CA001019014","1971-12-31",37.94,26.06,0.00,0.00,
"CA001019014","1972-01-01",46.04,28.04,114.00,0.00,
"CA001019014","1972-01-02",37.94,28.04,0.00,0.00,
"CA001019014","1972-01-03",37.94,19.94,56.00,5.00,
"CA001019014","1972-01-04",35.96,28.04,33.00,0.00,
"CA001019014","1972-01-05",35.96,30.02,38.00,0.00,
"CA001019014","1972-01-06",39.92,30.02,51.00,51.00,
"CA001019014","1972-01-07",46.04,32.00,124.00,25.00,
"CA001019014","1972-01-08",46.04,33.08,183.00,33.00,
"CA001019014","1972-01-09",35.96,30.92,147.00,71.00,
"CA001019014","1972-01-10",42.08,28.94,69.00,0.00,
"CA001019014","1972-01-11",42.08,30.02,8.00,3.00,
"CA001019014","1972-01-12",44.06,30.02,0.00,0.00,
"CA001019014","1972-01-13",42.98,24.08,64.00,64.00,
"CA001019014","1972-01-14",37.94,21.02,23.00,0.00,
"CA001019014","1972-01-15",39.92,32.00,135.00,0.00,
"CA001019014","1972-01-16",39.92,33.08,168.00,76.00,
"CA001019014","1972-01-17",37.94,30.02,36.00,13.00,
"CA001019014","1972-01-18",37.94,28.94,318.00,318.00,
"CA001019014","1972-01-19",42.98,28.94,394.00,0.00,
"CA001019014","1972-01-20",44.06,37.94,554.00,0.00,
"CA001019014","1972-01-21",41.00,33.98,185.00,0.00,
"CA001019014","1972-01-22",39.02,35.06,25.00,0.00,
"CA001019014","1972-01-23",44.96,32.00,0.00,0.00,
"CA001019014","1972-01-24",28.94,26.06,10.00,10.00,
"CA001019014","1972-01-25",21.02,17.96,13.00,13.00,
"CA001019014","1972-01-26",24.08,15.08,0.00,0.00,
"CA001019014","1972-01-27",28.04,14.00,0.00,0.00,
"CA001019014","1972-01-28",32.00,15.08,5.00,5.00,
"CA001019014","1972-01-29",35.06,26.06,0.00,0.00,
"CA001019014","1972-01-30",37.04,28.04,3.00,3.00,
"CA001019014","1972-01-31",42.08,23.00,3.00,0.00,
"CA001019014","1972-02-01",37.04,19.94,25.00,0.00,
"CA001019014","1972-02-02",37.94,19.04,0.00,0.00,
"CA001019014","1972-02-03",39.02,21.02,0.00,0.00,
"CA001019014","1972-02-04",39.02,24.98,5.00,5.00,
"CA001019014","1972-02-05",39.02,30.92,89.00,0.00,
"CA001019014","1972-02-06",46.94,30.92,201.00,0.00,
"CA001019014","1972-02-07",42.08,35.06,38.00,0.00,
"CA001019014","1972-02-08",48.92,35.96,0.00,0.00,
"CA001019014","1972-02-09",48.02,32.00,0.00,0.00,
"CA001019014","1972-02-10",46.04,32.00,43.00,0.00,
"CA001019014","1972-02-11",46.04,33.98,48.00,5.00,
"CA001019014","1972-02-12",46.94,33.08,234.00,0.00,
"CA001019014","1972-02-13",44.96,33.98,46.00,38.00,
"CA001019014","1972-02-14",41.00,30.02,236.00,0.00,
"CA001019014","1972-02-15",42.08,33.98,483.00,0.00,
"CA001019014","1972-02-16",46.94,35.96,5.00,3.00,
"CA001019014","1972-02-17",42.08,30.02,117.00,0.00,
"CA001019014","1972-02-18",46.04,30.92,36.00,0.00,
"CA001019014","1972-02-19",48.92,35.96,353.00,0.00,
"CA001019014","1972-02-20",48.02,33.98,25.00,0.00,
"CA001019014","1972-02-21",48.02,32.00,0.00,0.00,
"CA001019014","1972-02-22",42.08,33.98,28.00,0.00,
"CA001019014","1972-02-23",42.08,33.08,0.00,0.00,
"CA001019014","1972-02-24",39.92,33.08,38.00,0.00,
"CA001019014","1972-02-25",39.92,30.02,246.00,3.00,
"CA001019014","1972-02-26",44.96,32.00,645.00,0.00,
"CA001019014","1972-02-27",50.00,30.92,251.00,0.00,
"CA001019014","1972-02-28",46.04,35.96,427.00,0.00,
"CA001019014","1972-02-29",44.06,33.08,0.00,0.00,
"CA001019014","1972-03-01",35.96,30.92,104.00,25.00,
"CA001019014","1972-03-02",41.00,30.92,48.00,25.00,
"CA001019014","1972-03-03",48.02,30.92,0.00,0.00,
"CA001019014","1972-03-04",41.00,32.00,43.00,0.00,
"CA001019014","1972-03-05",50.00,33.08,284.00,0.00,
"CA001019014","1972-03-06",46.04,35.06,5.00,0.00,
"CA001019014","1972-03-07",42.08,30.92,0.00,0.00,
"CA001019014","1972-03-08",51.08,33.08,81.00,0.00,
"CA001019014","1972-03-09",44.96,37.94,320.00,0.00,
"CA001019014","1972-03-10",51.08,39.92,241.00,0.00,
"CA001019014","1972-03-11",50.00,44.06,229.00,0.00,
"CA001019014","1972-03-12",51.98,44.06,239.00,0.00,
"CA001019014","1972-03-13",51.08,42.08,8.00,0.00,
"CA001019014","1972-03-14",48.02,41.00,69.00,0.00,
"CA001019014","1972-03-15",55.04,42.08,104.00,0.00,
"CA001019014","1972-03-16",55.94,42.08,0.00,0.00,
"CA001019014","1972-03-17",55.94,42.08,185.00,0.00,
"CA001019014","1972-03-18",55.04,44.96,112.00,0.00,
"CA001019014","1972-03-19",55.04,37.04,5.00,0.00,
"CA001019014","1972-03-20",57.02,33.08,0.00,0.00,
"CA001019014","1972-03-21",48.92,35.06,163.00,0.00,
"CA001019014","1972-03-22",50.00,42.08,0.00,0.00,
"CA001019014","1972-03-23",44.96,30.02,203.00,0.00,
"CA001019014","1972-03-24",44.96,33.08,13.00,0.00,
"CA001019014","1972-03-25",44.96,33.98,3.00,0.00,
"CA001019014","1972-03-26",42.98,30.02,8.00,0.00,
"CA001019014","1972-03-27",46.94,35.06,0.00,0.00,
"CA001019014","1972-03-28",55.04,30.92,0.00,0.00,
"CA001019014","1972-03-29",57.92,30.92,0.00,0.00,
"CA001019014","1972-03-30",53.06,32.00,0.00,0.00,
"CA001019014","1972-03-31",51.08,35.96,152.00,0.00,
"CA001019014","1972-04-01",53.06,33.98,0.00,0.00,
"CA001019014","1972-04-02",53.96,28.94,0.00,0.00,
"CA001019014","1972-04-03",57.02,30.02,130.00,0.00,
"CA001019014","1972-04-04",51.98,41.00,577.00,0.00,
"CA001019014","1972-04-05",55.04,46.04,287.00,0.00,
"CA001019014","1972-04-06",41.00,28.94,198.00,5.00,
"CA001019014","1972-04-07",39.02,28.94,229.00,0.00,
"CA001019014","1972-04-08",46.94,32.00,91.00,46.00,
"CA001019014","1972-04-09",48.92,28.94,15.00,0.00,
"CA001019014","1972-04-10",41.00,32.00,64.00,0.00,
"CA001019014","1972-04-11",44.06,30.02,91.00,0.00,
"CA001019014","1972-04-12",46.94,33.08,0.00,0.00,
"CA001019014","1972-04-13",48.02,32.00,30.00,0.00,
"CA001019014","1972-04-14",50.00,37.94,10.00,0.00,
"CA001019014","1972-04-15",53.96,30.92,5.00,0.00,
"CA001019014","1972-04-16",48.02,30.02,3.00,0.00,
"CA001019014","1972-04-17",48.92,28.94,0.00,0.00,
"CA001019014","1972-04-18",53.96,28.94,0.00,0.00,
"CA001019014","1972-04-19",50.00,35.06,20.00,0.00,
"CA001019014","1972-04-20",46.04,39.92,33.00,0.00,
"CA001019014","1972-04-21",48.92,33.98,0.00,0.00,
"CA001019014","1972-04-22",53.96,32.00,0.00,0.00,
"CA001019014","1972-04-23",55.94,35.96,25.00,0.00,
"CA001019014","1972-04-24",51.98,42.08,43.00,0.00,
"CA001019014","1972-04-25",51.98,37.94,5.00,0.00,
"CA001019014","1972-04-26",51.08,39.02,0.00,0.00,
"CA001019014","1972-04-27",69.08,37.94,23.00,0.00,
"CA001019014","1972-04-28",48.92,35.96,0.00,0.00,
"CA001019014","1972-04-29",51.08,32.00,0.00,0.00,
"CA001019014","1972-04-30",48.02,33.98,0.00,0.00,
"CA001019014","1972-05-01",48.02,33.98,46.00,0.00,
"CA001019014","1972-05-02",55.04,42.08,0.00,0.00,
"CA001019014","1972-05-03",64.04,42.98,0.00,0.00,
"CA001019014","1972-05-04",71.96,39.02,0.00,0.00,
"CA001019014","1972-05-05",73.04,39.92,0.00,0.00,
"CA001019014","1972-05-06",62.96,39.92,0.00,0.00,
"CA001019014","1972-05-07",64.04,44.06,0.00,0.00,
"CA001019014","1972-05-08",55.04,44.06,0.00,0.00,
"CA001019014","1972-05-09",57.92,44.96,0.00,0.00,
"CA001019014","1972-05-10",64.94,37.04,5.00,0.00,
"CA001019014","1972-05-11",53.96,41.00,20.00,0.00,
"CA001019014","1972-05-12",71.96,48.92,0.00,0.00,
"CA001019014","1972-05-13",78.08,44.96,0.00,0.00,
"CA001019014","1972-05-14",71.06,53.96,0.00,0.00,
"CA001019014","1972-05-15",57.92,46.94,13.00,0.00,
"CA001019014","1972-05-16",60.98,42.98,0.00,0.00,
"CA001019014","1972-05-17",51.08,42.08,0.00,0.00,
"CA001019014","1972-05-18",66.02,35.06,0.00,0.00,
"CA001019014","1972-05-19",78.98,41.00,0.00,0.00,
"CA001019014","1972-05-20",82.04,46.94,0.00,0.00,
"CA001019014","1972-05-21",57.02,46.04,0.00,0.00,
"CA001019014","1972-05-22",60.98,48.02,0.00,0.00,
"CA001019014","1972-05-23",57.02,39.92,0.00,0.00,
"CA001019014","1972-05-24",64.04,37.04,0.00,0.00,
"CA001019014","1972-05-25",71.06,37.94,0.00,0.00,
"CA001019014","1972-05-26",75.92,42.98,0.00,0.00,
"CA001019014","1972-05-27",80.96,48.92,0.00,0.00,
"CA001019014","1972-05-28",84.92,53.96,0.00,0.00,
"CA001019014","1972-05-29",73.04,53.06,0.00,0.00,
"CA001019014","1972-05-30",75.02,46.94,0.00,0.00,
"CA001019014","1972-05-31",60.98,48.02,0.00,0.00,
"CA001019014","1972-06-01",68.00,39.02,0.00,0.00,
"CA001019014","1972-06-02",78.08,42.98,0.00,0.00,
"CA001019014","1972-06-03",80.06,48.02,0.00,0.00,
"CA001019014","1972-06-04",80.96,41.00,0.00,0.00,
"CA001019014","1972-06-05",69.98,51.08,0.00,0.00,
"CA001019014","1972-06-06",73.94,46.04,0.00,0.00,
"CA001019014","1972-06-07",78.08,42.08,0.00,0.00,
"CA001019014","1972-06-08",77.00,51.08,10.00,0.00,
"CA001019014","1972-06-09",66.92,42.98,114.00,0.00,
"CA001019014","1972-06-10",55.94,46.94,0.00,0.00,
"CA001019014","1972-06-11",59.00,48.92,89.00,0.00,
"CA001019014","1972-06-12",66.02,46.04,0.00,0.00,
"CA001019014","1972-06-13",64.94,53.06,0.00,0.00,
"CA001019014","1972-06-14",60.98,53.96,18.00,0.00,
"CA001019014","1972-06-15",64.94,50.00,10.00,0.00,
"CA001019014","1972-06-16",62.96,42.08,0.00,0.00,
"CA001019014","1972-06-17",73.94,42.08,0.00,0.00,
"CA001019014","1972-06-18",78.08,44.96,0.00,0.00,
"CA001019014","1972-06-19",75.02,44.96,5.00,0.00,
"CA001019014","1972-06-20",62.06,53.06,15.00,0.00,
"CA001019014","1972-06-21",64.04,53.06,0.00,0.00,
"CA001019014","1972-06-22",55.04,46.94,13.00,0.00,
"CA001019014","1972-06-23",64.04,50.00,0.00,0.00,
"CA001019014","1972-06-24",64.04,50.00,0.00,0.00,
"CA001019014","1972-06-25",68.00,51.98,0.00,0.00,
"CA001019014","1972-06-26",59.00,50.00,0.00,0.00,
"CA001019014","1972-06-27",62.96,51.98,0.00,0.00,
"CA001019014","1972-06-28",66.92,46.94,0.00,0.00,
"CA001019014","1972-06-29",75.92,53.96,0.00,0.00,
"CA001019014","1972-06-30",78.98,53.06,0.00,0.00,
"CA001019014","1972-07-01",77.00,48.92,0.00,0.00,
"CA001019014","1972-07-02",84.02,48.02,0.00,0.00,
"CA001019014","1972-07-03",86.00,53.06,0.00,0.00,
"CA001019014","1972-07-04",89.06,53.96,0.00,0.00,
"CA001019014","1972-07-05",91.04,55.04,0.00,0.00,
"CA001019014","1972-07-06",78.08,51.98,0.00,0.00,
"CA001019014","1972-07-07",66.02,53.06,38.00,0.00,
"CA001019014","1972-07-08",60.98,48.02,81.00,0.00,
"CA001019014","1972-07-09",60.08,48.02,13.00,0.00,
"CA001019014","1972-07-10",57.02,44.06,69.00,0.00,
"CA001019014","1972-07-11",59.00,51.08,478.00,0.00,
"CA001019014","1972-07-12",62.96,50.00,119.00,0.00,
"CA001019014","1972-07-13",64.04,51.98,0.00,0.00,
"CA001019014","1972-07-14",80.06,50.00,0.00,0.00,
"CA001019014","1972-07-15",82.04,53.06,13.00,0.00,
"CA001019014","1972-07-16",89.06,53.06,0.00,0.00,
"CA001019014","1972-07-17",93.02,60.08,0.00,0.00,
"CA001019014","1972-07-18",93.92,55.04,0.00,0.00,
"CA001019014","1972-07-19",86.00,55.04,0.00,0.00,
"CA001019014","1972-07-20",86.00,55.04,0.00,0.00,
"CA001019014","1972-07-21",84.92,55.94,0.00,0.00,
"CA001019014","1972-07-22",73.94,48.92,0.00,0.00,
"CA001019014","1972-07-23",75.02,48.92,0.00,0.00,
"CA001019014","1972-07-24",75.02,48.92,0.00,0.00,
"CA001019014","1972-07-25",75.02,55.04,0.00,0.00,
"CA001019014","1972-07-26",75.02,48.92,0.00,0.00,
"CA001019014","1972-07-27",77.00,48.92,0.00,0.00,
"CA001019014","1972-07-28",82.94,48.02,0.00,0.00,
"CA001019014","1972-07-29",84.02,51.98,0.00,0.00,
"CA001019014","1972-07-30",87.98,53.96,0.00,0.00,
"CA001019014","1972-07-31",80.96,55.94,0.00,0.00,
"CA001019014","1972-08-01",75.02,53.06,0.00,0.00,
"CA001019014","1972-08-02",75.92,55.04,0.00,0.00,
"CA001019014","1972-08-03",80.96,57.92,0.00,0.00,
"CA001019014","1972-08-04",84.92,55.04,0.00,0.00,
"CA001019014","1972-08-05",87.08,55.94,0.00,0.00,
"CA001019014","1972-08-06",89.06,57.02,0.00,0.00,
"CA001019014","1972-08-07",89.96,64.94,0.00,0.00,
"CA001019014","1972-08-08",95.00,60.08,0.00,0.00,
"CA001019014","1972-08-09",91.04,60.08,0.00,0.00,
"CA001019014","1972-08-10",82.04,55.04,0.00,0.00,
"CA001019014","1972-08-11",77.00,48.92,0.00,0.00,
"CA001019014","1972-08-12",73.04,51.98,0.00,0.00,
"CA001019014","1972-08-13",71.96,50.00,0.00,0.00,
"CA001019014","1972-08-14",78.08,46.94,23.00,0.00,
"CA001019014","1972-08-15",64.94,55.94,229.00,0.00,
"CA001019014","1972-08-16",62.06,51.98,43.00,0.00,
"CA001019014","1972-08-17",68.00,51.08,30.00,0.00,
"CA001019014","1972-08-18",73.94,50.00,0.00,0.00,
"CA001019014","1972-08-19",78.08,51.08,0.00,0.00,
"CA001019014","1972-08-20",80.06,53.96,28.00,0.00,
"CA001019014","1972-08-21",69.98,55.04,0.00,0.00,
"CA001019014","1972-08-22",75.92,57.02,0.00,0.00,
"CA001019014","1972-08-23",80.06,51.98,0.00,0.00,
"CA001019014","1972-08-24",82.04,55.04,0.00,0.00,
"CA001019014","1972-08-25",82.94,53.96,0.00,0.00,
"CA001019014","1972-08-26",84.92,55.04,0.00,0.00,
"CA001019014","1972-08-27",87.98,55.94,0.00,0.00,
"CA001019014","1972-08-28",89.96,55.94,0.00,0.00,
"CA001019014","1972-08-29",75.92,53.06,5.00,0.00,
"CA001019014","1972-08-30",80.96,46.94,0.00,0.00,
"CA001019014","1972-08-31",82.94,46.04,0.00,0.00,
"CA001019014","1972-09-01",89.06,44.96,0.00,0.00,
"CA001019014","1972-09-02",87.08,44.96,0.00,0.00,
"CA001019014","1972-09-03",89.96,57.02,0.00,0.00,
"CA001019014","1972-09-04",93.92,51.08,0.00,0.00,
"CA001019014","1972-09-05",66.92,48.92,0.00,0.00,
"CA001019014","1972-09-06",69.08,48.92,0.00,0.00,
"CA001019014","1972-09-07",62.06,48.92,191.00,0.00,
"CA001019014","1972-09-08",59.00,51.08,127.00,0.00,
"CA001019014","1972-09-09",64.04,48.92,0.00,0.00,
"CA001019014","1972-09-10",68.00,44.96,0.00,0.00,
"CA001019014","1972-09-11",75.02,44.96,0.00,0.00,
"CA001019014","1972-09-12",77.00,48.92,0.00,0.00,
"CA001019014","1972-09-13",77.00,50.00,0.00,0.00,
"CA001019014","1972-09-14",77.00,51.98,0.00,0.00,
"CA001019014","1972-09-15",73.94,51.08,0.00,0.00,
"CA001019014","1972-09-16",64.94,53.06,8.00,0.00,
"CA001019014","1972-09-17",62.96,42.08,0.00,0.00,
"CA001019014","1972-09-18",55.04,37.94,178.00,0.00,
"CA001019014","1972-09-19",53.06,35.96,28.00,0.00,
"CA001019014","1972-09-20",53.06,44.06,584.00,0.00,
"CA001019014","1972-09-21",48.92,41.00,201.00,0.00,
"CA001019014","1972-09-22",53.06,41.00,94.00,0.00,
"CA001019014","1972-09-23",53.96,41.00,97.00,0.00,
"CA001019014","1972-09-24",55.04,39.02,0.00,0.00,
"CA001019014","1972-09-25",57.02,32.00,0.00,0.00,
"CA001019014","1972-09-26",57.02,39.02,8.00,0.00,
"CA001019014","1972-09-27",53.96,32.00,23.00,0.00,
"CA001019014","1972-09-28",50.00,39.02,0.00,0.00,
"CA001019014","1972-09-29",57.02,39.02,0.00,0.00,
"CA001019014","1972-09-30",62.06,44.06,0.00,0.00,
"CA001019014","1972-10-01",66.02,53.06,0.00,0.00,
"CA001019014","1972-10-02",68.00,51.98,0.00,0.00,
"CA001019014","1972-10-03",64.94,42.08,0.00,0.00,
"CA001019014","1972-10-04",62.96,35.96,0.00,0.00,
"CA001019014","1972-10-05",62.96,37.04,0.00,0.00,
"CA001019014","1972-10-06",66.02,42.08,3.00,0.00,
"CA001019014","1972-10-07",68.00,46.94,0.00,0.00,
"CA001019014","1972-10-08",62.96,48.92,0.00,0.00,
"CA001019014","1972-10-09",57.92,33.98,0.00,0.00,
"CA001019014","1972-10-10",55.94,35.96,18.00,0.00,
"CA001019014","1972-10-11",57.02,33.08,0.00,0.00,
"CA001019014","1972-10-12",64.94,35.96,0.00,0.00,
"CA001019014","1972-10-13",59.00,41.00,0.00,0.00,
"CA001019014","1972-10-14",66.92,46.04,0.00,0.00,
"CA001019014","1972-10-15",69.08,37.94,0.00,0.00,
"CA001019014","1972-10-16",64.94,39.92,0.00,0.00,
"CA001019014","1972-10-17",60.98,41.00,0.00,0.00,
"CA001019014","1972-10-18",60.98,39.92,0.00,0.00,
"CA001019014","1972-10-19",53.06,42.98,0.00,0.00,
"CA001019014","1972-10-20",53.96,44.06,58.00,0.00,
"CA001019014","1972-10-21",57.02,37.04,0.00,0.00,
"CA001019014","1972-10-22",59.00,35.06,0.00,0.00,
"CA001019014","1972-10-23",57.02,35.06,0.00,0.00,
"CA001019014","1972-10-24",57.92,41.00,30.00,0.00,
"CA001019014","1972-10-25",53.06,42.08,13.00,0.00,
"CA001019014","1972-10-26",55.94,37.04,0.00,0.00,
"CA001019014","1972-10-27",48.92,39.92,,0.00,
"CA001019014","1972-10-28",48.92,37.04,0.00,0.00,
"CA001019014","1972-10-29",48.92,33.98,0.00,0.00,
"CA001019014","1972-10-30",51.98,30.92,0.00,0.00,
"CA001019014","1972-10-31",50.00,35.06,142.00,0.00,
"CA001019014","1972-11-01",48.02,35.06,196.00,0.00,
"CA001019014","1972-11-02",53.96,42.08,165.00,0.00,
"CA001019014","1972-11-03",55.94,46.94,437.00,0.00,
"CA001019014","1972-11-04",53.06,48.02,61.00,0.00,
"CA001019014","1972-11-05",46.94,39.92,297.00,0.00,
"CA001019014","1972-11-06",48.02,44.06,244.00,0.00,
"CA001019014","1972-11-07",50.00,42.08,30.00,0.00,
"CA001019014","1972-11-08",51.98,44.06,,0.00,
"CA001019014","1972-11-09",51.08,37.04,,0.00,
"CA001019014","1972-11-10",48.92,39.92,3.00,0.00,
"CA001019014","1972-11-11",50.00,39.02,0.00,0.00,
"CA001019014","1972-11-12",,,0.00,0.00,
"CA001019014","1972-11-13",55.04,,0.00,0.00,
"CA001019014","1972-11-14",55.94,35.96,0.00,0.00,
"CA001019014","1972-11-15",50.00,32.00,0.00,0.00,
"CA001019014","1972-11-16",48.02,32.00,0.00,0.00,
"CA001019014","1972-11-17",51.08,32.00,8.00,0.00,
"CA001019014","1972-11-18",51.08,35.06,41.00,0.00,
"CA001019014","1972-11-19",48.92,37.94,0.00,0.00,
"CA001019014","1972-11-20",46.04,37.04,13.00,0.00,
"CA001019014","1972-11-21",44.96,39.02,3.00,0.00,
"CA001019014","1972-11-22",44.96,41.00,163.00,0.00,
"CA001019014","1972-11-23",50.00,42.08,36.00,0.00,
"CA001019014","1972-11-24",42.98,37.94,109.00,0.00,
"CA001019014","1972-11-25",46.04,39.02,165.00,0.00,
"CA001019014","1972-11-26",48.92,35.06,0.00,0.00,
"CA001019014","1972-11-27",39.92,33.08,61.00,0.00,
"CA001019014","1972-11-28",41.00,33.08,0.00,0.00,
"CA001019014","1972-11-29",44.06,32.00,38.00,0.00,
"CA001019014","1972-11-30",48.02,39.02,150.00,0.00,
"CA001019014","1972-12-01",48.02,44.06,3.00,0.00,
"CA001019014","1972-12-02",42.08,30.02,0.00,0.00,
"CA001019014","1972-12-03",33.98,26.96,0.00,0.00,
"CA001019014","1972-12-04",30.92,19.04,38.00,38.00,
"CA001019014","1972-12-05",28.04,24.08,0.00,0.00,
"CA001019014","1972-12-06",30.02,17.96,0.00,0.00,
"CA001019014","1972-12-07",26.96,14.00,0.00,0.00,
"CA001019014","1972-12-08",26.96,14.00,76.00,76.00,
"CA001019014","1972-12-09",28.04,21.92,38.00,38.00,
"CA001019014","1972-12-10",32.00,19.94,25.00,25.00,
"CA001019014","1972-12-11",30.02,26.06,102.00,102.00,
"CA001019014","1972-12-12",35.06,19.94,0.00,0.00,
"CA001019014","1972-12-13",33.08,24.98,30.00,25.00,
"CA001019014","1972-12-14",35.96,26.06,18.00,0.00,
"CA001019014","1972-12-15",41.00,26.96,64.00,0.00,
"CA001019014","1972-12-16",50.00,28.04,528.00,0.00,
"CA001019014","1972-12-17",44.06,35.96,119.00,0.00,
"CA001019014","1972-12-18",51.08,33.98,871.00,0.00,
"CA001019014","1972-12-19",48.92,33.98,53.00,0.00,
"CA001019014","1972-12-20",46.94,39.92,236.00,0.00,
"CA001019014","1972-12-21",46.04,37.04,338.00,0.00,
"CA001019014","1972-12-22",44.06,33.98,292.00,0.00,
"CA001019014","1972-12-23",46.94,39.92,340.00,0.00,
"CA001019014","1972-12-24",44.96,32.00,658.00,0.00,
"CA001019014","1972-12-25",44.96,30.92,907.00,0.00,
"CA001019014","1972-12-26",46.04,39.02,168.00,0.00,
"CA001019014","1972-12-27",44.06,33.98,8.00,0.00,
"CA001019014","1972-12-28",42.98,35.96,0.00,0.00,
"CA001019014","1972-12-29",39.02,26.96,165.00,25.00,
"CA001019014","1972-12-30",41.00,30.92,0.00,0.00,
"CA001019014","1972-12-31",41.00,30.02,58.00,0.00,
"CA001019014","1973-01-01",44.96,30.92,112.00,0.00,
"CA001019014","1973-01-02",39.92,30.02,0.00,0.00,
"CA001019014","1973-01-03",30.92,28.94,0.00,0.00,
"CA001019014","1973-01-04",30.02,17.96,8.00,8.00,
"CA001019014","1973-01-05",33.08,17.96,0.00,0.00,
"CA001019014","1973-01-06",33.08,12.02,0.00,0.00,
"CA001019014","1973-01-07",30.02,17.96,0.00,0.00,
"CA001019014","1973-01-08",33.08,15.08,0.00,0.00,
"CA001019014","1973-01-09",35.06,21.02,0.00,0.00,
"CA001019014","1973-01-10",37.04,21.92,76.00,76.00,
"CA001019014","1973-01-11",37.94,30.02,330.00,0.00,
"CA001019014","1973-01-12",46.04,33.98,241.00,0.00,
"CA001019014","1973-01-13",48.02,37.04,356.00,0.00,
"CA001019014","1973-01-14",48.92,37.94,533.00,0.00,
"CA001019014","1973-01-15",53.96,39.02,478.00,0.00,
"CA001019014","1973-01-16",53.06,37.04,188.00,0.00,
"CA001019014","1973-01-17",46.94,35.06,0.00,0.00,
"CA001019014","1973-01-18",46.04,35.06,130.00,0.00,
"CA001019014","1973-01-19",42.08,30.92,69.00,0.00,
"CA001019014","1973-01-20",42.08,33.08,132.00,0.00,
"CA001019014","1973-01-21",42.08,33.08,10.00,0.00,
"CA001019014","1973-01-22",42.08,33.98,102.00,0.00,
"CA001019014","1973-01-23",46.04,33.98,508.00,0.00,
"CA001019014","1973-01-24",44.96,35.96,25.00,0.00,
"CA001019014","1973-01-25",41.00,28.94,94.00,0.00,
"CA001019014","1973-01-26",37.94,24.08,0.00,0.00,
"CA001019014","1973-01-27",35.96,32.00,64.00,64.00,
"CA001019014","1973-01-28",37.94,30.92,51.00,0.00,
"CA001019014","1973-01-29",37.04,33.98,127.00,25.00,
"CA001019014","1973-01-30",39.02,33.98,99.00,0.00,
"CA001019014","1973-01-31",50.00,33.98,3.00,0.00,
"CA001019014","1973-02-01",42.08,33.08,168.00,0.00,
"CA001019014","1973-02-02",42.08,37.04,66.00,0.00,
"CA001019014","1973-02-03",42.08,26.06,0.00,0.00,
"CA001019014","1973-02-04",44.96,21.92,0.00,0.00,
"CA001019014","1973-02-05",44.06,26.96,0.00,0.00,